| time (UTC) | temp C | wind direction | speed KPH | gust KPH | rain 1hr cm | rain 24hr cm | rain mn cm | humidity % | barometer mb |
| 20260504004518 | 12 | 125 | 0.0 | 0.0 | 0.00 | 0.00 | 0.00 | 49 | 1012.6 |
| 20260504003016 | 12 | 125 | 0.0 | 0.0 | 0.00 | 0.00 | 0.00 | 47 | 1012.4 |
| 20260504001515 | 13 | 125 | 0.0 | 0.0 | 0.00 | 0.00 | 0.00 | 43 | 1012.2 |
| 20260504000015 | 13 | 125 | 0.0 | 0.0 | 0.00 | 0.00 | 0.00 | 40 | 1012.1 |
| 20260503234519 | 14 | 125 | 0.0 | 0.0 | 0.00 | 0.00 | 0.00 | 38 | 1012.0 |
| 20260503233013 | 14 | 125 | 0.0 | 0.0 | 0.00 | 0.00 | 0.00 | 36 | 1011.8 |
| 20260503231516 | 15 | 126 | 0.0 | 11.3 | 0.00 | 0.00 | 0.00 | 34 | 1011.8 |
| 20260503230015 | 15 | 86 | 0.0 | 3.2 | 0.00 | 0.00 | 0.00 | 34 | 1011.6 |
| 20260503224513 | 15 | 82 | 0.0 | 4.8 | 0.00 | 0.00 | 0.00 | 32 | 1011.6 |
| 20260503223013 | 15 | 330 | 0.0 | 3.2 | 0.00 | 0.00 | 0.00 | 33 | 1011.5 |
| 20260503221511 | 15 | 55 | 0.0 | 4.8 | 0.00 | 0.00 | 0.00 | 32 | 1011.4 |
| 20260503220011 | 15 | 44 | 0.0 | 4.8 | 0.00 | 0.00 | 0.00 | 32 | 1011.4 |
| 20260503214532 | 15 | 28 | 1.6 | 9.7 | 0.00 | 0.00 | 0.00 | 31 | 1011.5 |
| 20260503213010 | 15 | 86 | 0.0 | 9.7 | 0.00 | 0.00 | 0.00 | 32 | 1011.3 |
| 20260503211510 | 15 | 143 | 0.0 | 9.7 | 0.00 | 0.00 | 0.00 | 34 | 1011.3 |
| 20260503210010 | 15 | 9 | 0.0 | 14.5 | 0.00 | 0.00 | 0.00 | 34 | 1011.3 |
| 20260503204507 | 15 | 53 | 1.6 | 9.7 | 0.00 | 0.00 | 0.00 | 32 | 1011.2 |
| 20260503203007 | 15 | 292 | 0.0 | 12.9 | 0.00 | 0.00 | 0.00 | 32 | 1011.0 |
| 20260503201507 | 15 | 148 | 1.6 | 20.9 | 0.00 | 0.00 | 0.00 | 34 | 1011.2 |
| 20260503200006 | 15 | 40 | 0.0 | 6.4 | 0.00 | 0.00 | 0.00 | 34 | 1011.2 |
| 20260503194504 | 16 | 119 | 3.2 | 27.4 | 0.00 | 0.00 | 0.00 | 34 | 1011.5 |
| 20260503193002 | 15 | 92 | 0.0 | 9.7 | 0.00 | 0.00 | 0.00 | 39 | 1011.5 |
| 20260503191502 | 15 | 9 | 0.0 | 11.3 | 0.00 | 0.00 | 0.00 | 35 | 1011.8 |
| 20260503190056 | 14 | 93 | 0.0 | 9.7 | 0.00 | 0.00 | 0.00 | 39 | 1011.9 |
| 20260503184616 | 13 | 316 | 1.6 | 19.3 | 0.00 | 0.00 | 0.00 | 37 | 1012.0 |
| 20260503183054 | 13 | 92 | 0.0 | 12.9 | 0.00 | 0.00 | 0.00 | 40 | 1012.2 |
| 20260503181611 | 13 | 336 | 0.0 | 8.0 | 0.00 | 0.00 | 0.00 | 39 | 1012.2 |
| 20260503180111 | 13 | 355 | 0.0 | 6.4 | 0.00 | 0.00 | 0.00 | 42 | 1012.3 |
| 20260503174557 | 13 | 5 | 0.0 | 14.5 | 0.00 | 0.00 | 0.00 | 42 | 1012.3 |
| 20260503173101 | 13 | 134 | 3.2 | 17.7 | 0.00 | 0.00 | 0.00 | 38 | 1012.4 |
| 20260503171551 | 12 | 340 | 0.0 | 8.0 | 0.00 | 0.00 | 0.00 | 41 | 1012.3 |
| 20260503081542 | 8 | 99 | 0.0 | 0.0 | 0.00 | 0.00 | 0.00 | 54 | 1009.7 |
| 20260503071536 | 10 | 100 | 0.0 | 3.2 | 0.00 | 0.00 | 0.00 | 52 | 1009.8 |
| 20260503054521 | 11 | 109 | 0.0 | 1.6 | 0.00 | 0.00 | 0.00 | 49 | 1010.2 |
| 20260503053020 | 11 | 110 | 0.0 | 0.0 | 0.00 | 0.00 | 0.00 | 48 | 1010.4 |
| 20260503051532 | 11 | 110 | 0.0 | 3.2 | 0.00 | 0.00 | 0.00 | 49 | 1010.3 |
| 20260503050017 | 11 | 113 | 0.0 | 0.0 | 0.00 | 0.00 | 0.00 | 50 | 1010.3 |
| 20260503044515 | 11 | 113 | 0.0 | 1.6 | 0.00 | 0.00 | 0.00 | 50 | 1010.6 |
| 20260503043014 | 11 | 113 | 0.0 | 1.6 | 0.00 | 0.00 | 0.00 | 51 | 1010.8 |
| 20260503041511 | 11 | 113 | 0.0 | 0.0 | 0.00 | 0.00 | 0.00 | 54 | 1010.9 |
| 20260503040008 | 11 | 113 | 0.0 | 0.0 | 0.00 | 0.00 | 0.00 | 56 | 1010.9 |
| 20260503034508 | 11 | 113 | 0.0 | 0.0 | 0.00 | 0.00 | 0.00 | 57 | 1010.6 |
| 20260503033012 | 11 | 113 | 0.0 | 0.0 | 0.00 | 0.00 | 0.00 | 58 | 1010.9 |
| 20260503031507 | 11 | 113 | 0.0 | 0.0 | 0.00 | 0.00 | 0.00 | 57 | 1010.8 |
| 20260503030130 | 11 | 113 | 0.0 | 0.0 | 0.00 | 0.00 | 0.00 | 59 | 1010.7 |
| 20260503024505 | 11 | 113 | 0.0 | 0.0 | 0.00 | 0.00 | 0.00 | 60 | 1010.5 |
| 20260503023004 | 11 | 113 | 0.0 | 0.0 | 0.00 | 0.00 | 0.00 | 64 | 1010.7 |
| 20260503021504 | 11 | 113 | 0.0 | 0.0 | 0.00 | 0.00 | 0.00 | 66 | 1010.9 |
| 20260503020003 | 11 | 113 | 0.0 | 0.0 | 0.00 | 0.00 | 0.00 | 72 | 1010.7 |
| 20260503014502 | 11 | 113 | 0.0 | 0.0 | 0.00 | 0.00 | 0.00 | 78 | 1010.9 |
| 20260503013002 | 11 | 113 | 0.0 | 0.0 | 0.00 | 0.00 | 0.00 | 78 | 1010.9 |
| 20260503011506 | 11 | 113 | 0.0 | 0.0 | 0.00 | 0.00 | 0.00 | 77 | 1010.9 |
| 20260503010001 | 11 | 113 | 0.0 | 0.0 | 0.00 | 0.00 | 0.00 | 76 | 1010.7 |